Time,TemperatureF,DewpointF,PressureIn,WindDirection,WindDirectionDegrees,WindSpeedMPH,WindSpeedGustMPH,Humidity,HourlyPrecipIn,Conditions,Clouds,dailyrainin,SoftwareType,DateUTC
2013-05-24 00:14:00,37.0,21.0,29.82,NNW,328,1.0,4.0,52,0.00,,,0.00,weatherlink.com 1.10,2013-05-24 06:14:00,
2013-05-24 00:29:00,34.7,19.0,29.83,NW,316,2.0,4.0,53,0.00,,,0.00,weatherlink.com 1.10,2013-05-24 06:29:00,
2013-05-24 00:44:00,36.4,19.0,29.83,North,349,1.0,3.0,49,0.00,,,0.00,weatherlink.com 1.10,2013-05-24 06:44:00,
2013-05-24 00:59:00,36.7,20.0,29.83,NW,305,1.0,4.0,52,0.00,,,0.00,weatherlink.com 1.10,2013-05-24 06:59:00,
2013-05-24 01:14:00,35.5,19.0,29.83,NW,316,3.0,4.0,51,0.00,,,0.00,weatherlink.com 1.10,2013-05-24 07:14:00,
2013-05-24 01:29:00,36.7,20.0,29.83,WNW,282,0.0,0.0,50,0.00,,,0.00,weatherlink.com 1.10,2013-05-24 07:29:00,
2013-05-24 01:44:00,36.0,17.0,29.84,NNW,330,2.0,4.0,47,0.00,,,0.00,weatherlink.com 1.10,2013-05-24 07:44:00,
2013-05-24 01:59:00,35.6,18.0,29.84,NNW,346,3.0,4.0,48,0.00,,,0.00,weatherlink.com 1.10,2013-05-24 07:59:00,
2013-05-24 02:14:00,33.8,19.0,29.84,West,278,0.0,2.0,54,0.00,,,0.00,weatherlink.com 1.10,2013-05-24 08:14:00,
2013-05-24 02:29:00,34.1,17.0,29.85,NNW,345,0.0,2.0,50,0.00,,,0.00,weatherlink.com 1.10,2013-05-24 08:29:00,
2013-05-24 02:44:00,32.5,18.0,29.85,NW,308,0.0,1.0,56,0.00,,,0.00,weatherlink.com 1.10,2013-05-24 08:44:00,
2013-05-24 02:59:00,33.4,18.0,29.85,NNW,338,0.0,1.0,54,0.00,,,0.00,weatherlink.com 1.10,2013-05-24 08:59:00,
2013-05-24 03:14:00,31.9,18.0,29.86,WNW,290,2.0,4.0,57,0.00,,,0.00,weatherlink.com 1.10,2013-05-24 09:14:00,
2013-05-24 03:29:00,29.7,18.0,29.87,WNW,300,0.0,2.0,62,0.00,,,0.00,weatherlink.com 1.10,2013-05-24 09:29:00,
2013-05-24 03:44:00,30.4,18.0,29.87,WNW,282,0.0,0.0,61,0.00,,,0.00,weatherlink.com 1.10,2013-05-24 09:44:00,
2013-05-24 03:59:00,29.8,20.0,29.87,WNW,282,2.0,3.0,67,0.00,,,0.00,weatherlink.com 1.10,2013-05-24 09:59:00,
2013-05-24 04:14:00,28.9,18.0,29.89,NW,310,0.0,1.0,65,0.00,,,0.00,weatherlink.com 1.10,2013-05-24 10:14:00,
2013-05-24 04:29:00,28.6,17.0,29.89,NNW,344,2.0,3.0,63,0.00,,,0.00,weatherlink.com 1.10,2013-05-24 10:29:00,
2013-05-24 04:45:00,27.5,19.0,29.89,NW,316,1.0,2.0,71,0.00,,,0.00,weatherlink.com 1.10,2013-05-24 10:45:00,
2013-05-24 05:00:00,26.7,19.0,29.91,West,259,0.0,3.0,72,0.00,,,0.00,weatherlink.com 1.10,2013-05-24 11:00:00,
2013-05-24 05:15:00,27.2,16.0,29.91,NNW,347,0.0,3.0,63,0.00,,,0.00,weatherlink.com 1.10,2013-05-24 11:15:00,
2013-05-24 05:30:00,28.4,18.0,29.92,North,354,1.0,2.0,64,0.00,,,0.00,weatherlink.com 1.10,2013-05-24 11:30:00,
2013-05-24 05:45:00,27.5,17.0,29.93,NNW,336,0.0,2.0,66,0.00,,,0.00,weatherlink.com 1.10,2013-05-24 11:45:00,
2013-05-24 06:00:00,27.0,18.0,29.93,North,1,0.0,0.0,68,0.00,,,0.00,weatherlink.com 1.10,2013-05-24 12:00:00,
2013-05-24 06:15:00,27.6,17.0,29.94,West,276,0.0,0.0,64,0.00,,,0.00,weatherlink.com 1.10,2013-05-24 12:15:00,
2013-05-24 06:30:00,27.8,17.0,29.94,NNW,340,0.0,3.0,65,0.00,,,0.00,weatherlink.com 1.10,2013-05-24 12:30:00,
2013-05-24 06:45:00,28.8,19.0,29.95,WNW,297,0.0,0.0,67,0.00,,,0.00,weatherlink.com 1.10,2013-05-24 12:45:00,
2013-05-24 07:00:00,32.6,20.0,29.95,NNW,348,1.0,1.0,59,0.00,,,0.00,weatherlink.com 1.10,2013-05-24 13:00:00,
2013-05-24 07:15:00,35.1,20.0,29.95,NW,305,0.0,0.0,55,0.00,,,0.00,weatherlink.com 1.10,2013-05-24 13:15:00,
2013-05-24 07:30:00,37.6,21.0,29.94,WNW,289,1.0,2.0,52,0.00,,,0.00,weatherlink.com 1.10,2013-05-24 13:30:00,
2013-05-24 07:45:00,41.5,22.0,29.94,ESE,107,1.0,2.0,46,0.00,,,0.00,weatherlink.com 1.10,2013-05-24 13:45:00,
2013-05-24 08:00:00,45.0,21.0,29.93,ESE,120,0.0,1.0,38,0.00,,,0.00,weatherlink.com 1.10,2013-05-24 14:00:00,
2013-05-24 08:15:00,45.9,20.0,29.93,ENE,78,1.0,2.0,35,0.00,,,0.00,weatherlink.com 1.10,2013-05-24 14:15:00,
2013-05-24 08:30:00,48.1,19.0,29.93,WNW,283,2.0,3.0,32,0.00,,,0.00,weatherlink.com 1.10,2013-05-24 14:30:00,
2013-05-24 08:45:00,50.1,20.0,29.92,East,101,2.0,4.0,30,0.00,,,0.00,weatherlink.com 1.10,2013-05-24 14:45:00,
2013-05-24 09:00:00,53.0,22.0,29.92,SSE,167,4.0,7.0,30,0.00,,,0.00,weatherlink.com 1.10,2013-05-24 15:00:00,
2013-05-24 09:15:00,54.9,21.0,29.91,ENE,64,6.0,7.0,27,0.00,,,0.00,weatherlink.com 1.10,2013-05-24 15:15:00,
2013-05-24 09:30:00,58.0,20.0,29.90,NE,51,5.0,7.0,23,0.00,,,0.00,weatherlink.com 1.10,2013-05-24 15:30:00,
2013-05-24 09:45:00,59.1,17.0,29.90,South,186,6.0,10.0,19,0.00,,,0.00,weatherlink.com 1.10,2013-05-24 15:45:00,
2013-05-24 10:00:00,59.5,14.0,29.90,WSW,246,9.0,13.0,17,0.00,,,0.00,weatherlink.com 1.10,2013-05-24 16:00:00,
2013-05-24 10:16:00,59.5,13.0,29.90,SSE,153,2.0,26.0,16,0.00,,,0.00,weatherlink.com 1.10,2013-05-24 16:16:00,
2013-05-24 10:31:00,60.7,14.0,29.89,SE,134,4.0,14.0,16,0.00,,,0.00,weatherlink.com 1.10,2013-05-24 16:31:00,
2013-05-24 10:46:00,61.1,14.0,29.89,WNW,293,6.0,17.0,16,0.00,,,0.00,weatherlink.com 1.10,2013-05-24 16:46:00,
2013-05-24 11:01:00,61.6,15.0,29.88,SW,222,5.0,24.0,16,0.00,,,0.00,weatherlink.com 1.10,2013-05-24 17:01:00,
2013-05-24 11:16:00,62.2,18.0,29.88,South,181,20.0,23.0,18,0.00,,,0.00,weatherlink.com 1.10,2013-05-24 17:16:00,
2013-05-24 11:31:00,62.5,14.0,29.89,West,281,3.0,25.0,15,0.00,,,0.00,weatherlink.com 1.10,2013-05-24 17:31:00,
2013-05-24 11:46:00,63.1,16.0,29.88,SE,132,18.0,24.0,16,0.00,,,0.00,weatherlink.com 1.10,2013-05-24 17:46:00,
2013-05-24 12:01:00,63.2,16.0,29.88,SSE,159,11.0,18.0,16,0.00,,,0.00,weatherlink.com 1.10,2013-05-24 18:01:00,
2013-05-24 12:17:00,62.8,13.0,29.88,ESE,106,5.0,22.0,14,0.00,,,0.00,weatherlink.com 1.10,2013-05-24 18:17:00,
2013-05-24 12:31:00,64.2,12.0,29.88,SW,218,13.0,23.0,13,0.00,,,0.00,weatherlink.com 1.10,2013-05-24 18:31:00,
2013-05-24 12:46:00,64.3,12.0,29.88,SSE,155,9.0,29.0,13,0.00,,,0.00,weatherlink.com 1.10,2013-05-24 18:46:00,
2013-05-24 13:01:00,64.9,14.0,29.88,SSE,164,6.0,26.0,14,0.00,,,0.00,weatherlink.com 1.10,2013-05-24 19:01:00,
2013-05-24 13:16:00,64.5,12.0,29.88,West,271,4.0,22.0,13,0.00,,,0.00,weatherlink.com 1.10,2013-05-24 19:16:00,
2013-05-24 13:31:00,65.2,15.0,29.87,SSW,193,20.0,30.0,14,0.00,,,0.00,weatherlink.com 1.10,2013-05-24 19:31:00,
2013-05-24 13:46:00,66.0,15.0,29.89,SSW,207,13.0,27.0,14,0.00,,,0.00,weatherlink.com 1.10,2013-05-24 19:46:00,
2013-05-24 14:01:00,64.7,14.0,29.88,SSE,168,3.0,25.0,14,0.00,,,0.00,weatherlink.com 1.10,2013-05-24 20:01:00,
2013-05-24 14:16:00,65.5,16.0,29.87,SSW,212,14.0,22.0,15,0.00,,,0.00,weatherlink.com 1.10,2013-05-24 20:16:00,
2013-05-24 14:31:00,66.1,17.0,29.86,SE,134,12.0,20.0,15,0.00,,,0.00,weatherlink.com 1.10,2013-05-24 20:31:00,
2013-05-24 14:46:00,66.2,15.0,29.87,SSE,159,13.0,36.0,14,0.00,,,0.00,weatherlink.com 1.10,2013-05-24 20:46:00,
2013-05-24 15:01:00,66.0,14.0,29.87,SW,225,15.0,32.0,13,0.00,,,0.00,weatherlink.com 1.10,2013-05-24 21:01:00,
2013-05-24 15:16:00,66.3,16.0,29.86,NW,309,8.0,24.0,14,0.00,,,0.00,weatherlink.com 1.10,2013-05-24 21:16:00,
2013-05-24 15:31:00,66.2,15.0,29.86,SE,136,9.0,23.0,14,0.00,,,0.00,weatherlink.com 1.10,2013-05-24 21:31:00,
2013-05-24 15:46:00,66.7,16.0,29.86,South,187,19.0,28.0,14,0.00,,,0.00,weatherlink.com 1.10,2013-05-24 21:46:00,
2013-05-24 16:01:00,66.4,17.0,29.86,SSE,155,15.0,27.0,15,0.00,,,0.00,weatherlink.com 1.10,2013-05-24 22:01:00,
2013-05-24 16:16:00,66.6,16.0,29.85,SW,218,16.0,28.0,14,0.00,,,0.00,weatherlink.com 1.10,2013-05-24 22:16:00,
2013-05-24 16:31:00,66.0,15.0,29.84,SW,231,6.0,28.0,14,0.00,,,0.00,weatherlink.com 1.10,2013-05-24 22:31:00,
2013-05-24 16:46:00,67.1,14.0,29.84,SSE,162,14.0,25.0,13,0.00,,,0.00,weatherlink.com 1.10,2013-05-24 22:46:00,
2013-05-24 17:01:00,65.4,16.0,29.85,SE,134,8.0,19.0,15,0.00,,,0.00,weatherlink.com 1.10,2013-05-24 23:01:00,
2013-05-24 17:16:00,66.3,17.0,29.85,SSW,200,5.0,28.0,15,0.00,,,0.00,weatherlink.com 1.10,2013-05-24 23:16:00,
2013-05-24 17:31:00,66.6,14.0,29.84,SW,215,11.0,23.0,13,0.00,,,0.00,weatherlink.com 1.10,2013-05-24 23:31:00,
2013-05-24 17:46:00,66.2,12.0,29.84,SSE,166,8.0,26.0,12,0.00,,,0.00,weatherlink.com 1.10,2013-05-24 23:46:00,
2013-05-24 18:01:00,66.4,10.0,29.84,SW,235,11.0,27.0,11,0.00,,,0.00,weatherlink.com 1.10,2013-05-25 00:01:00,
2013-05-24 18:16:00,65.8,12.0,29.84,South,188,12.0,29.0,12,0.00,,,0.00,weatherlink.com 1.10,2013-05-25 00:16:00,
2013-05-24 18:31:00,64.4,12.0,29.84,West,262,3.0,22.0,13,0.00,,,0.00,weatherlink.com 1.10,2013-05-25 00:31:00,
2013-05-24 18:46:00,63.2,11.0,29.83,South,181,10.0,22.0,13,0.00,,,0.00,weatherlink.com 1.10,2013-05-25 00:46:00,
2013-05-24 19:01:00,62.7,11.0,29.83,SSE,160,11.0,14.0,13,0.00,,,0.00,weatherlink.com 1.10,2013-05-25 01:01:00,
2013-05-24 19:16:00,61.7,12.0,29.83,WSW,255,1.0,7.0,14,0.00,,,0.00,weatherlink.com 1.10,2013-05-25 01:16:00,
2013-05-24 19:31:00,60.6,15.0,29.84,WNW,302,5.0,7.0,17,0.00,,,0.00,weatherlink.com 1.10,2013-05-25 01:31:00,
2013-05-24 19:46:00,59.9,13.0,29.84,NW,322,2.0,3.0,16,0.00,,,0.00,weatherlink.com 1.10,2013-05-25 01:46:00,
2013-05-24 20:01:00,59.7,13.0,29.84,ENE,77,0.0,3.0,16,0.00,,,0.00,weatherlink.com 1.10,2013-05-25 02:01:00,
2013-05-24 20:16:00,56.6,18.0,29.84,SW,231,0.0,2.0,22,0.00,,,0.00,weatherlink.com 1.10,2013-05-25 02:16:00,
2013-05-24 20:31:00,53.7,18.0,29.85,SW,215,0.0,0.0,25,0.00,,,0.00,weatherlink.com 1.10,2013-05-25 02:31:00,
2013-05-24 20:46:00,51.8,17.0,29.85,ESE,106,0.0,0.0,25,0.00,,,0.00,weatherlink.com 1.10,2013-05-25 02:46:00,
2013-05-24 21:01:00,50.8,17.0,29.86,WNW,294,4.0,4.0,26,0.00,,,0.00,weatherlink.com 1.10,2013-05-25 03:01:00,
2013-05-24 21:16:00,48.7,19.0,29.86,NW,304,2.0,3.0,31,0.00,,,0.00,weatherlink.com 1.10,2013-05-25 03:16:00,
2013-05-24 21:31:00,46.5,19.0,29.87,WNW,285,2.0,4.0,34,0.00,,,0.00,weatherlink.com 1.10,2013-05-25 03:31:00,
2013-05-24 21:46:00,44.4,18.0,29.88,NW,325,2.0,3.0,35,0.00,,,0.00,weatherlink.com 1.10,2013-05-25 03:46:00,
2013-05-24 22:01:00,44.4,19.0,29.88,NW,319,1.0,2.0,37,0.00,,,0.00,weatherlink.com 1.10,2013-05-25 04:01:00,
2013-05-24 22:16:00,44.2,19.0,29.89,North,351,0.0,2.0,37,0.00,,,0.00,weatherlink.com 1.10,2013-05-25 04:16:00,
2013-05-24 22:31:00,42.7,19.0,29.90,NW,325,0.0,2.0,38,0.00,,,0.00,weatherlink.com 1.10,2013-05-25 04:31:00,
2013-05-24 22:46:00,43.1,19.0,29.90,North,358,0.0,2.0,38,0.00,,,0.00,weatherlink.com 1.10,2013-05-25 04:46:00,
2013-05-24 23:01:00,39.8,19.0,29.91,NNW,332,1.0,4.0,43,0.00,,,0.00,weatherlink.com 1.10,2013-05-25 05:01:00,
2013-05-24 23:16:00,39.9,18.0,29.91,North,352,2.0,5.0,42,0.00,,,0.00,weatherlink.com 1.10,2013-05-25 05:16:00,
2013-05-24 23:31:00,38.7,18.0,29.91,NNW,342,1.0,2.0,44,0.00,,,0.00,weatherlink.com 1.10,2013-05-25 05:31:00,
2013-05-24 23:46:00,38.5,19.0,29.91,West,276,1.0,3.0,46,0.00,,,0.00,weatherlink.com 1.10,2013-05-25 05:46:00,